Time,TemperatureF,DewpointF,PressureIn,WindDirection,WindDirectionDegrees,WindSpeedMPH,WindSpeedGustMPH,Humidity,HourlyPrecipIn,Conditions,Clouds,dailyrainin,SoftwareType,DateUTC
2013-05-09 00:03:00,52.0,50.0,29.98,South,173,0.0,0.0,94,0.00,,,0.95,,2013-05-09 04:03:00,
2013-05-09 00:12:00,52.0,50.0,29.98,South,173,0.0,0.0,94,0.00,,,0.95,,2013-05-09 04:12:00,
2013-05-09 00:23:00,53.0,52.0,29.97,South,173,0.0,2.0,95,0.00,,,0.95,,2013-05-09 04:23:00,
2013-05-09 00:33:00,52.0,51.0,29.96,South,173,0.0,0.0,95,0.00,,,0.95,,2013-05-09 04:33:00,
2013-05-09 00:43:00,52.0,51.0,29.96,South,173,0.0,0.0,95,0.00,,,0.95,,2013-05-09 04:43:00,
2013-05-09 00:52:00,52.0,51.0,29.96,South,173,0.0,0.0,95,0.00,,,0.95,,2013-05-09 04:52:00,
2013-05-09 01:02:00,52.0,51.0,29.96,South,173,0.0,1.0,95,0.00,,,0.95,,2013-05-09 05:02:00,
2013-05-09 01:12:00,52.0,51.0,29.96,South,173,0.0,1.0,95,0.00,,,0.95,,2013-05-09 05:12:00,
2013-05-09 01:22:00,51.0,50.0,29.96,South,173,0.0,0.0,95,0.00,,,0.95,,2013-05-09 05:22:00,
2013-05-09 01:32:00,51.0,50.0,29.95,South,173,0.0,0.0,95,0.00,,,0.95,,2013-05-09 05:32:00,
2013-05-09 01:42:00,52.0,51.0,29.95,South,173,0.0,2.0,96,0.00,,,0.95,,2013-05-09 05:42:00,
2013-05-09 01:51:00,52.0,51.0,29.95,South,173,0.0,2.0,96,0.00,,,0.95,,2013-05-09 05:51:00,
2013-05-09 02:02:00,52.0,51.0,29.95,South,173,0.0,0.0,96,0.00,,,0.95,,2013-05-09 06:02:00,
2013-05-09 02:12:00,52.0,51.0,29.95,South,173,0.0,0.0,96,0.00,,,0.95,,2013-05-09 06:12:00,
2013-05-09 02:21:00,52.0,51.0,29.94,South,173,0.0,0.0,96,0.00,,,0.94,,2013-05-09 06:21:00,
2013-05-09 02:32:00,52.0,51.0,29.93,South,173,0.0,1.0,96,0.00,,,0.94,,2013-05-09 06:32:00,
2013-05-09 02:42:00,52.0,51.0,29.93,South,173,0.0,1.0,96,0.00,,,0.94,,2013-05-09 06:42:00,
2013-05-09 02:52:00,52.0,51.0,29.93,South,173,0.0,1.0,96,0.00,,,0.94,,2013-05-09 06:52:00,
2013-05-09 03:01:00,52.0,51.0,29.93,South,173,0.0,2.0,96,0.00,,,0.94,,2013-05-09 07:01:00,
2013-05-09 03:12:00,52.0,51.0,29.92,South,173,0.0,1.0,96,0.00,,,0.84,,2013-05-09 07:12:00,
2013-05-09 03:21:00,52.0,51.0,29.92,South,173,0.0,1.0,96,0.00,,,0.84,,2013-05-09 07:21:00,
2013-05-09 03:32:00,52.0,51.0,29.92,South,173,0.0,0.0,96,0.00,,,0.84,,2013-05-09 07:32:00,
2013-05-09 03:42:00,52.0,51.0,29.92,South,173,0.0,0.0,96,0.00,,,0.84,,2013-05-09 07:42:00,
2013-05-09 03:52:00,52.0,51.0,29.92,South,173,0.0,0.0,96,0.00,,,0.84,,2013-05-09 07:52:00,
2013-05-09 04:02:00,52.0,51.0,29.92,South,173,0.0,1.0,96,0.00,,,0.84,,2013-05-09 08:02:00,
2013-05-09 04:11:00,52.0,51.0,29.92,South,173,0.0,1.0,96,0.00,,,0.83,,2013-05-09 08:11:00,
2013-05-09 04:21:00,52.0,51.0,29.92,South,173,0.0,1.0,96,0.00,,,0.83,,2013-05-09 08:21:00,
2013-05-09 04:32:00,52.0,51.0,29.92,South,173,0.0,1.0,96,0.00,,,0.83,,2013-05-09 08:32:00,
2013-05-09 04:42:00,52.0,51.0,29.91,South,173,0.0,1.0,96,0.00,,,0.83,,2013-05-09 08:42:00,
2013-05-09 04:52:00,52.0,51.0,29.91,South,173,0.0,1.0,96,0.00,,,0.83,,2013-05-09 08:52:00,
2013-05-09 05:02:00,52.0,51.0,29.91,SE,128,2.0,6.0,96,0.00,,,0.83,,2013-05-09 09:02:00,
2013-05-09 05:11:00,52.0,51.0,29.91,SE,128,2.0,6.0,96,0.00,,,0.83,,2013-05-09 09:11:00,
2013-05-09 05:21:00,52.0,51.0,29.91,ESE,121,0.0,1.0,96,0.00,,,0.83,,2013-05-09 09:21:00,
2013-05-09 05:32:00,52.0,51.0,29.91,SE,132,0.0,5.0,96,0.00,,,0.83,,2013-05-09 09:32:00,
2013-05-09 05:43:00,52.0,51.0,29.91,SSW,198,1.0,5.0,96,0.00,,,0.83,,2013-05-09 09:43:00,
2013-05-09 05:53:00,52.0,51.0,29.91,SSW,198,1.0,5.0,96,0.00,,,0.83,,2013-05-09 09:53:00,
2013-05-09 06:02:00,52.0,51.0,29.91,SE,143,1.0,5.0,96,0.00,,,0.83,,2013-05-09 10:02:00,
2013-05-09 06:12:00,53.0,52.0,29.91,SSE,160,1.0,4.0,97,0.00,,,0.83,,2013-05-09 10:12:00,
2013-05-09 06:22:00,53.0,52.0,29.91,SSE,160,1.0,4.0,97,0.00,,,0.83,,2013-05-09 10:22:00,
2013-05-09 06:33:00,53.0,52.0,29.92,SSE,160,0.0,5.0,97,0.01,,,0.84,,2013-05-09 10:33:00,
2013-05-09 06:42:00,53.0,52.0,29.92,SSE,160,0.0,1.0,97,0.01,,,0.84,,2013-05-09 10:42:00,
2013-05-09 06:52:00,53.0,52.0,29.92,SSE,160,0.0,1.0,97,0.01,,,0.84,,2013-05-09 10:52:00,
2013-05-09 07:02:00,53.0,52.0,29.92,SSE,148,0.0,4.0,97,0.01,,,0.84,,2013-05-09 11:02:00,
2013-05-09 07:12:00,53.0,52.0,29.91,SSE,149,1.0,4.0,97,0.01,,,0.84,,2013-05-09 11:12:00,
2013-05-09 07:22:00,53.0,52.0,29.91,SSE,149,1.0,4.0,97,0.01,,,0.84,,2013-05-09 11:22:00,
2013-05-09 07:32:00,53.0,52.0,29.92,SSE,149,0.0,1.0,97,0.00,,,0.84,,2013-05-09 11:32:00,
2013-05-09 07:42:00,54.0,53.0,29.92,SSE,149,0.0,3.0,97,0.00,,,0.84,,2013-05-09 11:42:00,
2013-05-09 07:52:00,54.0,53.0,29.92,SSE,149,0.0,3.0,97,0.00,,,0.84,,2013-05-09 11:52:00,
2013-05-09 08:01:00,54.0,53.0,29.92,SSE,149,0.0,1.0,97,0.00,,,0.84,,2013-05-09 12:01:00,
2013-05-09 08:11:00,54.0,53.0,29.92,SSE,149,0.0,1.0,97,0.01,,,0.79,,2013-05-09 12:11:00,
2013-05-09 08:22:00,54.0,53.0,29.92,SSE,149,0.0,1.0,97,0.01,,,0.79,,2013-05-09 12:22:00,
2013-05-09 08:32:00,54.0,53.0,29.92,SSE,149,2.0,3.0,97,0.02,,,0.80,,2013-05-09 12:32:00,
2013-05-09 08:42:00,54.0,53.0,29.93,SSE,149,0.0,2.0,97,0.02,,,0.80,,2013-05-09 12:42:00,
2013-05-09 08:52:00,54.0,53.0,29.93,SSE,149,0.0,2.0,97,0.02,,,0.80,,2013-05-09 12:52:00,
2013-05-09 09:01:00,54.0,53.0,29.93,SSE,149,0.0,3.0,97,0.01,,,0.80,,2013-05-09 13:01:00,
2013-05-09 09:12:00,54.0,53.0,29.93,SSE,149,0.0,3.0,97,0.01,,,0.80,,2013-05-09 13:12:00,
2013-05-09 09:22:00,54.0,53.0,29.93,SSE,149,0.0,5.0,97,0.01,,,0.65,,2013-05-09 13:22:00,
2013-05-09 09:32:00,54.0,53.0,29.93,SSE,149,0.0,1.0,97,0.01,,,0.66,,2013-05-09 13:32:00,
2013-05-09 09:42:00,55.0,54.0,29.93,SSE,149,0.0,1.0,97,0.01,,,0.66,,2013-05-09 13:42:00,
2013-05-09 09:52:00,55.0,54.0,29.93,SSE,149,0.0,1.0,97,0.01,,,0.66,,2013-05-09 13:52:00,
2013-05-09 10:02:00,54.0,53.0,29.93,SSE,149,0.0,1.0,97,0.01,,,0.66,,2013-05-09 14:02:00,
2013-05-09 10:11:00,55.0,54.0,29.92,SSE,149,0.0,0.0,97,0.01,,,0.61,,2013-05-09 14:11:00,
2013-05-09 10:22:00,55.0,54.0,29.92,SSE,149,0.0,0.0,97,0.01,,,0.61,,2013-05-09 14:22:00,
2013-05-09 10:32:00,55.0,54.0,29.92,SSE,149,0.0,0.0,97,0.01,,,0.62,,2013-05-09 14:32:00,
2013-05-09 10:42:00,55.0,54.0,29.93,SSE,149,0.0,0.0,97,0.01,,,0.62,,2013-05-09 14:42:00,
2013-05-09 10:52:00,55.0,54.0,29.93,SSE,149,0.0,0.0,97,0.01,,,0.62,,2013-05-09 14:52:00,
2013-05-09 11:01:00,55.0,54.0,29.93,SSE,149,0.0,0.0,97,0.01,,,0.62,,2013-05-09 15:01:00,
2013-05-09 11:11:00,55.0,54.0,29.93,SSE,149,0.0,1.0,96,0.02,,,0.63,,2013-05-09 15:11:00,
2013-05-09 11:22:00,55.0,54.0,29.93,SSE,149,0.0,1.0,96,0.02,,,0.63,,2013-05-09 15:22:00,
2013-05-09 11:33:00,56.0,55.0,29.93,SSE,149,0.0,1.0,96,0.01,,,0.63,,2013-05-09 15:33:00,
2013-05-09 11:43:00,56.0,54.0,29.93,ENE,65,0.0,4.0,94,0.01,,,0.63,,2013-05-09 15:43:00,
2013-05-09 11:53:00,56.0,54.0,29.93,ENE,65,0.0,4.0,94,0.01,,,0.63,,2013-05-09 15:53:00,
2013-05-09 12:03:00,57.0,54.0,29.93,ENE,65,0.0,1.0,90,0.01,,,0.63,,2013-05-09 16:03:00,
2013-05-09 12:12:00,58.0,55.0,29.92,ENE,57,2.0,4.0,90,0.00,,,0.63,,2013-05-09 16:12:00,
2013-05-09 12:23:00,58.0,55.0,29.92,ENE,57,2.0,4.0,90,0.00,,,0.63,,2013-05-09 16:23:00,
2013-05-09 12:33:00,59.0,54.0,29.92,NNE,31,2.0,7.0,85,0.00,,,0.63,,2013-05-09 16:33:00,
2013-05-09 12:42:00,59.0,54.0,29.92,NNE,20,3.0,5.0,85,0.00,,,0.63,,2013-05-09 16:42:00,
2013-05-09 12:53:00,59.0,54.0,29.92,NNE,20,3.0,5.0,85,0.00,,,0.63,,2013-05-09 16:53:00,
2013-05-09 13:02:00,59.0,55.0,29.92,NNE,19,0.0,7.0,87,0.00,,,0.63,,2013-05-09 17:02:00,
2013-05-09 13:12:00,59.0,55.0,29.92,NNE,19,0.0,7.0,87,0.00,,,0.63,,2013-05-09 17:12:00,
2013-05-09 13:21:00,60.0,55.0,29.91,WSW,254,4.0,7.0,83,0.00,,,0.43,,2013-05-09 17:21:00,
2013-05-09 13:32:00,60.0,55.0,29.91,North,355,1.0,4.0,84,0.00,,,0.43,,2013-05-09 17:32:00,
2013-05-09 13:42:00,61.0,55.0,29.91,NNE,29,3.0,6.0,82,0.00,,,0.43,,2013-05-09 17:42:00,
2013-05-09 13:55:00,61.0,55.0,29.91,NNE,29,3.0,6.0,82,0.00,,,0.43,,2013-05-09 17:55:00,
2013-05-09 14:01:00,64.0,57.0,29.90,West,280,0.0,3.0,77,0.00,,,0.43,,2013-05-09 18:01:00,
2013-05-09 14:12:00,64.0,57.0,29.90,West,280,0.0,3.0,77,0.00,,,0.43,,2013-05-09 18:12:00,
2013-05-09 14:21:00,65.0,55.0,29.90,NW,306,3.0,9.0,70,0.00,,,0.06,,2013-05-09 18:21:00,
2013-05-09 14:32:00,65.0,56.0,29.89,NNE,25,4.0,7.0,72,0.00,,,0.06,,2013-05-09 18:32:00,
2013-05-09 14:42:00,65.0,55.0,29.89,NNE,26,3.0,7.0,69,0.00,,,0.06,,2013-05-09 18:42:00,
2013-05-09 14:52:00,65.0,55.0,29.89,NNE,26,3.0,7.0,69,0.00,,,0.06,,2013-05-09 18:52:00,
2013-05-09 15:01:00,66.0,55.0,29.88,North,360,3.0,10.0,67,0.00,,,0.06,,2013-05-09 19:01:00,
2013-05-09 15:12:00,66.0,55.0,29.88,North,360,3.0,10.0,67,0.00,,,0.06,,2013-05-09 19:12:00,
2013-05-09 15:21:00,66.0,54.0,29.88,NW,316,2.0,6.0,66,0.00,,,0.06,,2013-05-09 19:21:00,
2013-05-09 15:31:00,65.0,54.0,29.88,WSW,254,1.0,4.0,68,0.00,,,0.06,,2013-05-09 19:31:00,
2013-05-09 15:41:00,65.0,54.0,29.88,NW,317,2.0,6.0,67,0.00,,,0.06,,2013-05-09 19:41:00,
2013-05-09 15:52:00,65.0,54.0,29.88,NW,317,2.0,6.0,67,0.00,,,0.06,,2013-05-09 19:52:00,
2013-05-09 16:01:00,65.0,54.0,29.88,NW,321,1.0,3.0,68,0.00,,,0.06,,2013-05-09 20:01:00,
2013-05-09 16:11:00,65.0,54.0,29.88,NW,321,1.0,3.0,68,0.00,,,0.06,,2013-05-09 20:11:00,
2013-05-09 16:22:00,65.0,54.0,29.88,NNW,344,3.0,5.0,68,0.00,,,0.06,,2013-05-09 20:22:00,
2013-05-09 16:32:00,63.0,55.0,29.88,West,278,0.0,9.0,76,0.00,,,0.06,,2013-05-09 20:32:00,
2013-05-09 16:42:00,61.0,56.0,29.88,WNW,288,0.0,4.0,83,0.00,,,0.06,,2013-05-09 20:42:00,
2013-05-09 16:52:00,61.0,56.0,29.88,WNW,288,0.0,4.0,83,0.00,,,0.06,,2013-05-09 20:52:00,
2013-05-09 17:02:00,61.0,56.0,29.88,NW,311,1.0,5.0,84,0.00,,,0.06,,2013-05-09 21:02:00,
2013-05-09 17:12:00,61.0,55.0,29.88,WNW,300,0.0,6.0,82,0.00,,,0.06,,2013-05-09 21:12:00,
2013-05-09 17:22:00,61.0,55.0,29.88,WNW,300,0.0,6.0,82,0.00,,,0.06,,2013-05-09 21:22:00,
2013-05-09 17:32:00,61.0,55.0,29.88,WNW,299,1.0,3.0,80,0.00,,,0.06,,2013-05-09 21:32:00,
2013-05-09 17:43:00,63.0,56.0,29.89,WNW,298,0.0,3.0,78,0.00,,,0.06,,2013-05-09 21:43:00,
2013-05-09 17:53:00,63.0,56.0,29.89,WNW,298,0.0,3.0,78,0.00,,,0.06,,2013-05-09 21:53:00,
2013-05-09 18:03:00,64.0,56.0,29.88,West,266,2.0,5.0,74,0.00,,,0.06,,2013-05-09 22:03:00,
2013-05-09 18:13:00,64.0,56.0,29.88,West,272,2.0,6.0,74,0.00,,,0.06,,2013-05-09 22:13:00,
2013-05-09 18:23:00,64.0,56.0,29.88,West,272,2.0,6.0,74,0.00,,,0.06,,2013-05-09 22:23:00,
2013-05-09 18:33:00,63.0,55.0,29.88,WNW,286,0.0,5.0,75,0.00,,,0.06,,2013-05-09 22:33:00,
2013-05-09 18:42:00,64.0,56.0,29.88,WNW,282,0.0,4.0,75,0.00,,,0.06,,2013-05-09 22:42:00,
2013-05-09 18:52:00,64.0,56.0,29.88,WNW,282,0.0,4.0,75,0.00,,,0.06,,2013-05-09 22:52:00,
2013-05-09 19:02:00,65.0,55.0,29.88,WNW,301,0.0,5.0,70,0.00,,,0.06,,2013-05-09 23:02:00,
2013-05-09 19:12:00,65.0,55.0,29.88,NW,308,1.0,6.0,70,0.00,,,0.06,,2013-05-09 23:12:00,
2013-05-09 19:22:00,65.0,55.0,29.88,NW,308,1.0,6.0,70,0.00,,,0.06,,2013-05-09 23:22:00,
2013-05-09 19:32:00,64.0,55.0,29.88,NW,307,0.0,4.0,72,0.00,,,0.06,,2013-05-09 23:32:00,
2013-05-09 19:42:00,63.0,56.0,29.90,NW,307,0.0,1.0,78,0.00,,,0.06,,2013-05-09 23:42:00,
2013-05-09 19:52:00,63.0,56.0,29.90,NW,307,0.0,1.0,78,0.00,,,0.06,,2013-05-09 23:52:00,
2013-05-09 20:01:00,62.0,56.0,29.90,NW,307,0.0,0.0,80,0.00,,,0.06,,2013-05-10 00:01:00,
2013-05-09 20:11:00,60.0,55.0,29.90,NW,307,0.0,0.0,85,0.00,,,0.06,,2013-05-10 00:11:00,
2013-05-09 20:22:00,60.0,55.0,29.90,NW,307,0.0,0.0,85,0.00,,,0.06,,2013-05-10 00:22:00,
2013-05-09 20:32:00,59.0,55.0,29.91,NW,307,0.0,0.0,86,0.00,,,0.06,,2013-05-10 00:32:00,
2013-05-09 20:42:00,58.0,55.0,29.91,NW,307,0.0,0.0,89,0.00,,,0.06,,2013-05-10 00:42:00,
2013-05-09 20:52:00,58.0,55.0,29.91,NW,307,0.0,0.0,89,0.00,,,0.06,,2013-05-10 00:52:00,
2013-05-09 21:01:00,58.0,55.0,29.91,NW,307,0.0,0.0,89,0.00,,,0.06,,2013-05-10 01:01:00,
2013-05-09 21:11:00,57.0,54.0,29.92,NW,307,0.0,0.0,90,0.00,,,0.06,,2013-05-10 01:11:00,
2013-05-09 21:21:00,57.0,54.0,29.92,NW,307,0.0,0.0,90,0.00,,,0.06,,2013-05-10 01:21:00,
2013-05-09 21:32:00,56.0,54.0,29.92,NW,307,0.0,0.0,92,0.00,,,0.06,,2013-05-10 01:32:00,
2013-05-09 21:42:00,56.0,54.0,29.92,NW,307,0.0,0.0,92,0.00,,,0.06,,2013-05-10 01:42:00,
2013-05-09 21:52:00,56.0,54.0,29.92,NW,307,0.0,0.0,92,0.00,,,0.06,,2013-05-10 01:52:00,
2013-05-09 22:02:00,56.0,54.0,29.93,NW,307,0.0,0.0,92,0.00,,,0.06,,2013-05-10 02:02:00,
2013-05-09 22:11:00,56.0,54.0,29.93,NW,307,0.0,0.0,93,0.00,,,0.06,,2013-05-10 02:11:00,
2013-05-09 22:21:00,56.0,54.0,29.93,NW,307,0.0,0.0,93,0.00,,,0.06,,2013-05-10 02:21:00,
2013-05-09 22:32:00,55.0,53.0,29.93,NW,307,0.0,1.0,93,0.00,,,0.06,,2013-05-10 02:32:00,
2013-05-09 22:42:00,55.0,53.0,29.93,NW,307,0.0,0.0,93,0.00,,,0.06,,2013-05-10 02:42:00,
2013-05-09 22:52:00,55.0,53.0,29.93,NW,307,0.0,0.0,93,0.00,,,0.06,,2013-05-10 02:52:00,
2013-05-09 23:01:00,55.0,53.0,29.93,NW,307,0.0,0.0,94,0.00,,,0.06,,2013-05-10 03:01:00,
2013-05-09 23:11:00,55.0,53.0,29.93,NW,307,0.0,0.0,94,0.00,,,0.06,,2013-05-10 03:11:00,
2013-05-09 23:22:00,55.0,53.0,29.93,NW,307,0.0,0.0,94,0.00,,,0.06,,2013-05-10 03:22:00,
2013-05-09 23:33:00,55.0,53.0,29.93,NW,307,0.0,0.0,94,0.00,,,0.06,,2013-05-10 03:33:00,
2013-05-09 23:43:00,55.0,54.0,29.93,NW,307,0.0,0.0,95,0.00,,,0.06,,2013-05-10 03:43:00,
2013-05-09 23:53:00,55.0,54.0,29.93,NW,307,0.0,0.0,95,0.00,,,0.06,,2013-05-10 03:53:00,